Regional Weather Roundup
Issued by NWS New Orleans/Baton Rouge, LA

Home | Current Version | Previous Version | Text Only | Print | Product List | Glossary On
Versions: 1 2 3 4 5 6 7 8 9 10 11 12 13 14 15 16 17 18 19 20 21 22 23 24 25 26 27 28 29 30 31 32 33 34 35 36 37 38 39 40 41 42 43 44 45 46 47 48 49 50
285
ASUS44 KLIX 201810
RWRLIX
NEW ORLEANS REGIONAL WEATHER ROUNDUP
NATIONAL WEATHER SERVICE NEW ORLEANS LA
1200 PM CST SAT DEC 20 2014

NOTE: "FAIR" INDICATES FEW OR NO CLOUDS BELOW 12,000 FEET WITH NO
      SIGNIFICANT WEATHER AND/OR OBSTRUCTIONS TO VISIBILITY.
      SKY/WX - SKY CONDITION AND SIGNIFICANT WEATHER.
      TMP - AIR TEMPERATURE.     DP    - DEWPOINT TEMPERATURE.
      RH  - RELATIVE HUMIDITY.   PRES  - PRESSURE.
      HI  - HEAT INDEX.          WCI   - WIND CHILL INDEX.

*  THESE STATIONS ARE NOT NWS OR FAA STATIONS AND ARE NOT UNDER
   NWS QUALITY CONTROL.

LAZ038-040-048-061>063-065>067-069-201900-
SOUTHEAST LOUISIANA

CITY           SKY/WX    TMP DP  RH WIND       PRES   REMARKS
N.O. AUDUBON     N/A     55  50  81 MISG        N/A
6HR MIN TEMP:  49; 6HR MAX TEMP:  55;

N.O. INTL ARPT CLOUDY    52  48  86 NE14      30.14F
6HR MIN TEMP:  50; 6HR MAX TEMP:  52;

N.O. LAKEFRONT CLOUDY    54  48  80 N13       30.14F
6HR MIN TEMP:  51; 6HR MAX TEMP:  55;

N.O. DOWNTOWN* CLOUDY    54  45  71 N8        30.14F
6HR MIN TEMP:  48; 6HR MAX TEMP:  54;

SLIDELL        CLOUDY    53  47  79 N12       30.13F
6HR MIN TEMP:  48; 6HR MAX TEMP:  54;

BATON ROUGE    CLOUDY    50  46  86 N7        30.16F
6HR MIN TEMP:  48; 6HR MAX TEMP:  50;

BOOTHVILLE     CLOUDY    55  53  93 NE13G20   30.11F
6HR MIN TEMP:  54; 6HR MAX TEMP:  56;

BELLE CHASSE   CLOUDY    56  50  80 N8        30.12F
6HR MIN TEMP:  49; 6HR MAX TEMP:  56;

BOGALUSA*        N/A     51  46  82 NE12      30.18F
6HR MIN TEMP:  48; 6HR MAX TEMP:  51;

GALLIANO*      CLOUDY    56  53  88 MISG      30.12F
6HR MIN TEMP:  51; 6HR MAX TEMP:  56; 6HR PCP:  0.01;

NEW ROADS*     CLOUDY    49  47  92 N7        30.18F
6HR MIN TEMP:  47; 6HR MAX TEMP:  49;

GONZALES*      CLOUDY    50  50 100 N7        30.15F
6HR MIN TEMP:  48; 6HR MAX TEMP:  50;

HAMMOND*       NOT AVBL
HOUMA*         CLOUDY    54  50  87 N14       30.12F
PORT FOURCHON* CLOUDY    55  52  88 NE16      30.14F

$$

MSZ070-080>082-201900-
SOUTHERN MISSISSIPPI

CITY           SKY/WX    TMP DP  RH WIND       PRES   REMARKS
MCCOMB         CLOUDY    48  45  89 NE8       30.17F FOG
6HR MIN TEMP:  45; 6HR MAX TEMP:  48;

GULFPORT       CLOUDY    51  47  86 N13       30.13F
6HR MIN TEMP:  47; 6HR MAX TEMP:  51;

BILOXI         CLOUDY    51  49  94 NE10      30.12F
6HR MIN TEMP:  47; 6HR MAX TEMP:  51; 6HR PCP:  0.01;

PASCAGOULA     CLOUDY    52  49  89 N10       30.12F
6HR MIN TEMP:  47; 6HR MAX TEMP:  52; 6HR PCP:  0.01;

STENNIS ARPT*  CLOUDY    52  46  82 N9        30.14F

$$

COASTAL OBSERVATIONS
LAKE AND NEARSHORE STATIONS

STATION/POSITION TIME  TEMP    WIND        PRES    WAVE
                       AIR SEA DIR/SP/G            HT/PER
                 (UTC) (F)     (DEG/KT/KT) (MB)    (FT/S)
PASCAGOULA       1800   53      20/ 10/ 14 1019.3
WAVELAND YACHT   1800   51      20/ 10/ 12 1019.5
GRAND ISLE       1800   54 60   40/ 12/ 16 1020.0
SOUTHWEST PASS   1800   62                 1018.7
NEW CANAL        1800   51 56   10/ 11/ 12 1020.8
SHELL BEACH      1800   52 58   20/ 13/ 15 1020.0

OFFSHORE STATIONS

STATION/POSITION TIME  TEMP    WIND        PRES    WAVE
                       AIR SEA DIR/SP/G            HT/PER
                 (UTC) (F)     (DEG/KT/KT) (MB)    (FT/S)
64 S DAUPHIN ISL 1800   63 74   60/ 27/ 29 1016.7    8/ 7

$$




USA.gov is the U.S. government's official web portal to all federal, state and local government web resources and services.